カタログに戻る

TIBA-1

運用中通信GEO
NORAD 44800·PAYLOAD·🇪🇬 Egypt

打ち上げ Nov 26, 2019 から Guiana Space Centre

Loading…

TLE

最新Source: Space-Track

元期: Sep 14, 2026, 22:31 UTC

1 44800U 19080A   26257.93855414  .00000149  00000-0  00000-0 0  9999
2 44800   0.0557 341.6748 0002389 195.9482 189.6539  1.00274682 24948

AllMySatでTIBA-1をリアルタイム追跡

Download on the App Store